Orbital Elements at Epoch 2459200.5 (2020-Dec-17.0) TDB
Reference: JPL 15 (heliocentric ecliptic J2000)
Element | Value | Uncertainty (1-sigma) | Units |
e | .1373961840986087 | 3.9858e-08 | |
a | 2.389065306599494 | 1.2719e-08 | au |
q | 2.060816849910351 | 9.2898e-08 | au |
i | 4.934815457103317 | 4.4128e-06 | deg |
node | 100.7019359683029 | 5.0083e-05 | deg |
peri | 121.2763862873041 | 5.4498e-05 | deg |
M | 212.7725888308965 | 2.4474e-05 | deg |
tp | 2459752.103018544695 (2022-Jun-21.60301854) | 9.4999e-05 | TDB |
period | 1348.777955811552 3.69 | 1.0771e-05 2.949e-08 | d yr |
n | .2669082768211392 | 2.1315e-09 | deg/d |
Q | 2.717313763288637 | 1.4467e-08 | au |
|
| | Orbit Determination Parameters
Additional Information
|